Time,TemperatureF,DewpointF,PressureIn,WindDirection,WindDirectionDegrees,WindSpeedMPH,WindSpeedGustMPH,Humidity,HourlyPrecipIn,Conditions,Clouds,dailyrainin,SoftwareType,DateUTC
2013-10-26 00:01:00,46.8,0.0,30.33,North,0,0.4,2.9,0,0.00,,,0.00,WUHU216HW,2013-10-26 07:01:00,
2013-10-26 00:06:00,47.2,0.0,30.33,East,90,1.3,2.9,0,0.00,,,0.00,WUHU216HW,2013-10-26 07:06:00,
2013-10-26 00:11:00,47.2,0.0,30.33,ENE,68,0.0,1.8,0,0.00,,,0.00,WUHU216HW,2013-10-26 07:11:00,
2013-10-26 00:16:00,47.2,0.0,30.33,ENE,68,0.0,1.8,0,0.00,,,0.00,WUHU216HW,2013-10-26 07:16:00,
2013-10-26 00:21:00,47.2,0.0,30.33,SE,135,0.0,1.1,0,0.00,,,0.00,WUHU216HW,2013-10-26 07:21:00,
2013-10-26 00:26:00,47.3,0.0,30.34,NNE,23,0.0,1.1,0,0.00,,,0.00,WUHU216HW,2013-10-26 07:26:00,
2013-10-26 00:31:00,47.3,0.0,30.33,North,0,0.4,0.7,0,0.00,,,0.00,WUHU216HW,2013-10-26 07:31:00,
2013-10-26 00:36:00,47.3,0.0,30.33,North,0,1.1,1.1,0,0.00,,,0.00,WUHU216HW,2013-10-26 07:36:00,
2013-10-26 00:41:00,47.3,0.0,30.33,NNE,23,0.7,1.1,0,0.00,,,0.00,WUHU216HW,2013-10-26 07:41:00,
2013-10-26 00:46:00,47.5,0.0,30.33,ENE,68,0.0,1.1,0,0.00,,,0.00,WUHU216HW,2013-10-26 07:46:00,
2013-10-26 00:51:00,47.5,0.0,30.33,ENE,68,0.0,0.7,0,0.00,,,0.00,WUHU216HW,2013-10-26 07:51:00,
2013-10-26 00:56:00,47.5,0.0,30.33,ENE,68,0.0,0.4,0,0.00,,,0.00,WUHU216HW,2013-10-26 07:56:00,
2013-10-26 01:01:00,47.5,0.0,30.33,ENE,68,0.9,0.9,0,0.00,,,0.00,WUHU216HW,2013-10-26 08:01:00,
2013-10-26 01:06:00,47.5,0.0,30.33,NE,45,0.2,1.6,0,0.00,,,0.00,WUHU216HW,2013-10-26 08:06:00,
2013-10-26 01:11:00,47.5,0.0,30.33,ESE,113,0.0,1.6,0,0.00,,,0.00,WUHU216HW,2013-10-26 08:11:00,
2013-10-26 01:15:00,47.5,0.0,30.32,ESE,113,0.0,1.1,0,0.00,,,0.00,WUHU216HW,2013-10-26 08:15:00,
2013-10-26 01:21:00,47.5,0.0,30.32,North,0,0.0,0.2,0,0.00,,,0.00,WUHU216HW,2013-10-26 08:21:00,
2013-10-26 01:26:00,47.5,0.0,30.32,WSW,248,0.0,0.9,0,0.00,,,0.00,WUHU216HW,2013-10-26 08:26:00,
2013-10-26 01:31:00,47.5,0.0,30.32,WSW,248,0.4,0.9,0,0.00,,,0.00,WUHU216HW,2013-10-26 08:31:00,
2013-10-26 01:35:00,47.5,0.0,30.32,WSW,248,0.7,1.3,0,0.00,,,0.00,WUHU216HW,2013-10-26 08:35:00,
2013-10-26 01:40:00,47.5,0.0,30.32,SW,225,1.1,1.8,0,0.00,,,0.00,WUHU216HW,2013-10-26 08:40:00,
2013-10-26 01:45:00,47.5,0.0,30.32,SW,225,0.4,1.8,0,0.00,,,0.00,WUHU216HW,2013-10-26 08:45:00,
2013-10-26 01:50:00,47.5,0.0,30.32,SW,225,0.4,1.8,0,0.00,,,0.00,WUHU216HW,2013-10-26 08:50:00,
2013-10-26 01:55:00,47.5,0.0,30.32,SW,225,0.0,1.8,0,0.00,,,0.00,WUHU216HW,2013-10-26 08:55:00,
2013-10-26 02:00:00,47.5,0.0,30.33,WSW,248,0.2,1.1,0,0.00,,,0.00,WUHU216HW,2013-10-26 09:00:00,
2013-10-26 02:05:00,47.5,0.0,30.33,WSW,248,0.2,0.4,0,0.00,,,0.00,WUHU216HW,2013-10-26 09:05:00,
2013-10-26 02:10:00,47.5,0.0,30.33,WSW,248,0.0,0.2,0,0.00,,,0.00,WUHU216HW,2013-10-26 09:10:00,
2013-10-26 02:15:00,47.5,0.0,30.33,WSW,248,0.0,0.4,0,0.00,,,0.00,WUHU216HW,2013-10-26 09:15:00,
2013-10-26 02:20:00,47.7,0.0,30.33,NNE,23,0.4,0.9,0,0.00,,,0.00,WUHU216HW,2013-10-26 09:20:00,
2013-10-26 02:25:00,47.7,0.0,30.33,NW,315,0.4,1.8,0,0.00,,,0.00,WUHU216HW,2013-10-26 09:25:00,
2013-10-26 02:30:00,47.7,0.0,30.33,NW,315,0.4,1.8,0,0.00,,,0.00,WUHU216HW,2013-10-26 09:30:00,
2013-10-26 02:35:00,47.7,0.0,30.33,North,0,0.0,1.3,0,0.00,,,0.00,WUHU216HW,2013-10-26 09:35:00,
2013-10-26 02:40:00,47.7,0.0,30.33,NNE,23,0.0,1.3,0,0.00,,,0.00,WUHU216HW,2013-10-26 09:40:00,
2013-10-26 02:45:00,47.9,0.0,30.33,NNE,23,0.2,1.1,0,0.00,,,0.00,WUHU216HW,2013-10-26 09:45:00,
2013-10-26 02:50:00,47.9,0.0,30.33,North,0,0.0,0.7,0,0.00,,,0.00,WUHU216HW,2013-10-26 09:50:00,
2013-10-26 02:55:00,47.9,0.0,30.33,North,0,0.0,0.7,0,0.00,,,0.00,WUHU216HW,2013-10-26 09:55:00,
2013-10-26 03:00:00,47.9,0.0,30.33,North,0,0.0,0.7,0,0.00,,,0.00,WUHU216HW,2013-10-26 10:00:00,
2013-10-26 03:05:00,47.9,0.0,30.33,North,0,0.0,0.7,0,0.00,,,0.00,WUHU216HW,2013-10-26 10:05:00,
2013-10-26 03:10:00,47.9,0.0,30.33,North,0,0.0,0.4,0,0.00,,,0.00,WUHU216HW,2013-10-26 10:10:00,
2013-10-26 03:15:00,47.9,0.0,30.33,NNW,338,0.0,0.7,0,0.00,,,0.00,WUHU216HW,2013-10-26 10:15:00,
2013-10-26 03:20:00,47.9,0.0,30.33,NNW,338,0.0,0.7,0,0.00,,,0.00,WUHU216HW,2013-10-26 10:20:00,
2013-10-26 03:25:00,47.9,0.0,30.33,NW,315,0.0,0.4,0,0.00,,,0.00,WUHU216HW,2013-10-26 10:25:00,
2013-10-26 03:30:00,47.9,0.0,30.33,NW,315,0.0,0.4,0,0.00,,,0.00,WUHU216HW,2013-10-26 10:30:00,
2013-10-26 03:35:00,47.9,0.0,30.33,SSW,203,0.9,0.9,0,0.00,,,0.00,WUHU216HW,2013-10-26 10:35:00,
2013-10-26 03:40:00,48.1,0.0,30.34,WSW,248,0.2,1.3,0,0.00,,,0.00,WUHU216HW,2013-10-26 10:40:00,
2013-10-26 03:45:00,48.1,0.0,30.33,NE,45,0.0,1.3,0,0.00,,,0.00,WUHU216HW,2013-10-26 10:45:00,
2013-10-26 03:50:00,48.1,0.0,30.33,NNE,23,0.0,0.4,0,0.00,,,0.00,WUHU216HW,2013-10-26 10:50:00,
2013-10-26 03:55:00,48.1,0.0,30.33,NNE,23,0.7,0.7,0,0.00,,,0.00,WUHU216HW,2013-10-26 10:55:00,
2013-10-26 04:00:00,48.1,0.0,30.33,ENE,68,0.4,1.8,0,0.00,,,0.00,WUHU216HW,2013-10-26 11:00:00,
2013-10-26 04:05:00,48.1,0.0,30.33,North,0,0.0,1.8,0,0.00,,,0.00,WUHU216HW,2013-10-26 11:05:00,
2013-10-26 04:10:00,48.1,0.0,30.33,North,0,0.7,0.9,0,0.00,,,0.00,WUHU216HW,2013-10-26 11:10:00,
2013-10-26 04:15:00,48.1,0.0,30.33,SE,135,0.4,1.3,0,0.00,,,0.00,WUHU216HW,2013-10-26 11:15:00,
2013-10-26 04:20:00,48.1,0.0,30.33,NE,45,0.4,1.8,0,0.00,,,0.00,WUHU216HW,2013-10-26 11:20:00,
2013-10-26 04:25:00,48.2,0.0,30.33,SE,135,0.0,1.8,0,0.00,,,0.00,WUHU216HW,2013-10-26 11:25:00,
2013-10-26 04:30:00,48.2,0.0,30.32,ESE,113,0.4,0.9,0,0.00,,,0.00,WUHU216HW,2013-10-26 11:30:00,
2013-10-26 04:35:00,48.2,0.0,30.32,ENE,68,0.2,1.1,0,0.00,,,0.00,WUHU216HW,2013-10-26 11:35:00,
2013-10-26 04:40:00,48.2,0.0,30.32,SSE,158,0.2,1.1,0,0.00,,,0.00,WUHU216HW,2013-10-26 11:40:00,
2013-10-26 04:45:00,48.2,0.0,30.32,ENE,68,1.1,1.1,0,0.00,,,0.00,WUHU216HW,2013-10-26 11:45:00,
2013-10-26 04:50:00,48.2,0.0,30.32,East,90,0.4,1.1,0,0.00,,,0.00,WUHU216HW,2013-10-26 11:50:00,
2013-10-26 04:55:00,48.2,0.0,30.32,East,90,0.0,1.1,0,0.00,,,0.00,WUHU216HW,2013-10-26 11:55:00,
2013-10-26 05:00:00,48.2,0.0,30.32,East,90,0.0,0.4,0,0.00,,,0.00,WUHU216HW,2013-10-26 12:00:00,
2013-10-26 05:05:00,48.2,0.0,30.32,East,90,0.0,0.4,0,0.00,,,0.00,WUHU216HW,2013-10-26 12:05:00,
2013-10-26 05:10:00,48.2,0.0,30.32,East,90,0.2,0.4,0,0.00,,,0.00,WUHU216HW,2013-10-26 12:10:00,
2013-10-26 05:15:00,48.2,0.0,30.32,East,90,0.2,0.2,0,0.00,,,0.00,WUHU216HW,2013-10-26 12:15:00,
2013-10-26 05:20:00,48.2,0.0,30.32,East,90,0.7,0.7,0,0.00,,,0.00,WUHU216HW,2013-10-26 12:20:00,
2013-10-26 05:25:00,48.2,0.0,30.32,ENE,68,1.6,1.8,0,0.00,,,0.00,WUHU216HW,2013-10-26 12:25:00,
2013-10-26 05:30:00,48.2,0.0,30.32,ENE,68,0.0,1.8,0,0.00,,,0.00,WUHU216HW,2013-10-26 12:30:00,
2013-10-26 05:35:00,48.2,0.0,30.32,NNE,23,0.4,2.2,0,0.00,,,0.00,WUHU216HW,2013-10-26 12:35:00,
2013-10-26 05:40:00,48.2,0.0,30.32,North,0,1.1,2.9,0,0.00,,,0.00,WUHU216HW,2013-10-26 12:40:00,
2013-10-26 05:45:00,48.2,0.0,30.32,ENE,68,1.3,2.9,0,0.00,,,0.00,WUHU216HW,2013-10-26 12:45:00,
2013-10-26 05:50:00,48.2,0.0,30.32,ENE,68,0.2,1.3,0,0.00,,,0.00,WUHU216HW,2013-10-26 12:50:00,
2013-10-26 05:55:00,48.2,0.0,30.32,NNE,23,0.4,1.3,0,0.00,,,0.00,WUHU216HW,2013-10-26 12:55:00,
2013-10-26 06:00:00,48.2,0.0,30.32,NW,315,0.2,0.9,0,0.00,,,0.00,WUHU216HW,2013-10-26 13:00:00,
2013-10-26 06:05:00,48.2,0.0,30.32,SW,225,0.0,0.9,0,0.00,,,0.00,WUHU216HW,2013-10-26 13:05:00,
2013-10-26 06:10:00,48.2,0.0,30.31,North,0,0.7,1.3,0,0.00,,,0.00,WUHU216HW,2013-10-26 13:10:00,
2013-10-26 06:15:00,48.2,0.0,30.31,NNW,338,0.4,1.3,0,0.00,,,0.00,WUHU216HW,2013-10-26 13:15:00,
2013-10-26 06:20:00,48.2,0.0,30.32,SW,225,1.1,2.0,0,0.00,,,0.00,WUHU216HW,2013-10-26 13:20:00,
2013-10-26 06:25:00,48.2,0.0,30.32,SE,135,0.0,2.0,0,0.00,,,0.00,WUHU216HW,2013-10-26 13:25:00,
2013-10-26 06:30:00,48.2,0.0,30.32,NE,45,4.0,4.0,0,0.00,,,0.00,WUHU216HW,2013-10-26 13:30:00,
2013-10-26 06:35:00,48.2,0.0,30.32,NNW,338,0.4,4.0,0,0.00,,,0.00,WUHU216HW,2013-10-26 13:35:00,
2013-10-26 06:40:00,48.4,0.0,30.32,WSW,248,2.5,4.0,0,0.00,,,0.00,WUHU216HW,2013-10-26 13:40:00,
2013-10-26 06:45:00,48.4,0.0,30.33,WSW,248,1.1,4.0,0,0.00,,,0.00,WUHU216HW,2013-10-26 13:45:00,
2013-10-26 06:50:00,48.4,0.0,30.32,NE,45,0.2,3.4,0,0.00,,,0.00,WUHU216HW,2013-10-26 13:50:00,
2013-10-26 06:55:00,48.4,0.0,30.32,NNW,338,0.4,4.3,0,0.00,,,0.00,WUHU216HW,2013-10-26 13:55:00,
2013-10-26 07:00:00,48.4,0.0,30.33,NNW,338,1.8,4.3,0,0.00,,,0.00,WUHU216HW,2013-10-26 14:00:00,
2013-10-26 07:05:00,48.6,0.0,30.32,SSW,203,2.9,3.6,0,0.00,,,0.00,WUHU216HW,2013-10-26 14:05:00,
2013-10-26 07:10:00,48.6,0.0,30.32,North,0,0.9,3.4,0,0.00,,,0.00,WUHU216HW,2013-10-26 14:10:00,
2013-10-26 07:15:00,48.6,0.0,30.32,NW,315,0.9,4.7,0,0.00,,,0.00,WUHU216HW,2013-10-26 14:15:00,
2013-10-26 07:20:00,48.6,0.0,30.32,NW,315,2.0,4.9,0,0.00,,,0.00,WUHU216HW,2013-10-26 14:20:00,
2013-10-26 07:25:00,48.6,0.0,30.33,NNE,23,1.1,4.9,0,0.00,,,0.00,WUHU216HW,2013-10-26 14:25:00,
2013-10-26 07:30:00,48.6,0.0,30.32,WSW,248,2.0,2.9,0,0.00,,,0.00,WUHU216HW,2013-10-26 14:30:00,
2013-10-26 07:35:00,48.6,0.0,30.32,NNW,338,1.1,3.1,0,0.00,,,0.00,WUHU216HW,2013-10-26 14:35:00,
2013-10-26 07:40:00,48.6,0.0,30.33,NNW,338,3.1,3.4,0,0.00,,,0.00,WUHU216HW,2013-10-26 14:40:00,
2013-10-26 07:45:00,48.6,0.0,30.33,SE,135,0.4,3.4,0,0.00,,,0.00,WUHU216HW,2013-10-26 14:45:00,
2013-10-26 07:50:00,48.6,0.0,30.33,NNW,338,1.1,3.1,0,0.00,,,0.00,WUHU216HW,2013-10-26 14:50:00,
2013-10-26 07:55:00,48.8,0.0,30.33,NW,315,0.7,3.1,0,0.00,,,0.00,WUHU216HW,2013-10-26 14:55:00,
2013-10-26 08:00:00,48.8,0.0,30.32,North,0,0.4,2.5,0,0.00,,,0.00,WUHU216HW,2013-10-26 15:00:00,
2013-10-26 08:05:00,48.8,0.0,30.33,ESE,113,0.9,1.3,0,0.00,,,0.00,WUHU216HW,2013-10-26 15:05:00,
2013-10-26 08:10:00,48.8,0.0,30.33,WNW,293,0.0,1.8,0,0.00,,,0.00,WUHU216HW,2013-10-26 15:10:00,
2013-10-26 08:15:00,48.8,0.0,30.33,North,0,0.4,1.8,0,0.00,,,0.00,WUHU216HW,2013-10-26 15:15:00,
2013-10-26 08:20:00,48.8,0.0,30.33,North,0,1.3,1.3,0,0.00,,,0.00,WUHU216HW,2013-10-26 15:20:00,
2013-10-26 08:25:00,48.8,0.0,30.34,North,0,0.4,1.3,0,0.00,,,0.00,WUHU216HW,2013-10-26 15:25:00,
2013-10-26 08:30:00,48.8,0.0,30.34,NNW,338,0.4,0.7,0,0.00,,,0.00,WUHU216HW,2013-10-26 15:30:00,
2013-10-26 08:35:00,48.8,0.0,30.34,NW,315,0.0,0.7,0,0.00,,,0.00,WUHU216HW,2013-10-26 15:35:00,
2013-10-26 08:40:00,48.8,0.0,30.34,East,90,0.0,1.6,0,0.00,,,0.00,WUHU216HW,2013-10-26 15:40:00,
2013-10-26 08:45:00,48.8,0.0,30.34,East,90,0.0,1.6,0,0.00,,,0.00,WUHU216HW,2013-10-26 15:45:00,
2013-10-26 08:50:00,48.8,0.0,30.34,East,90,0.2,0.2,0,0.00,,,0.00,WUHU216HW,2013-10-26 15:50:00,
2013-10-26 08:55:00,49.0,0.0,30.34,East,90,1.1,1.1,0,0.00,,,0.00,WUHU216HW,2013-10-26 15:55:00,
2013-10-26 09:00:00,48.8,0.0,30.34,NNW,338,0.2,1.3,0,0.00,,,0.00,WUHU216HW,2013-10-26 16:00:00,
2013-10-26 09:05:00,49.0,0.0,30.34,NW,315,0.0,1.3,0,0.00,,,0.00,WUHU216HW,2013-10-26 16:05:00,
2013-10-26 09:10:00,49.0,0.0,30.34,SSE,158,0.2,0.9,0,0.00,,,0.00,WUHU216HW,2013-10-26 16:10:00,
2013-10-26 09:15:00,49.1,0.0,30.34,SSE,158,0.0,0.9,0,0.00,,,0.00,WUHU216HW,2013-10-26 16:15:00,
2013-10-26 09:20:00,49.1,0.0,30.34,SSE,158,0.4,0.4,0,0.00,,,0.00,WUHU216HW,2013-10-26 16:20:00,
2013-10-26 09:25:00,49.1,0.0,30.34,SSE,158,0.4,0.4,0,0.00,,,0.00,WUHU216HW,2013-10-26 16:25:00,
2013-10-26 09:30:00,49.3,0.0,30.34,East,90,0.4,1.6,0,0.00,,,0.00,WUHU216HW,2013-10-26 16:30:00,
2013-10-26 09:35:00,49.3,0.0,30.35,East,90,0.0,1.6,0,0.00,,,0.00,WUHU216HW,2013-10-26 16:35:00,
2013-10-26 09:40:00,49.3,0.0,30.35,ESE,113,0.4,0.4,0,0.00,,,0.00,WUHU216HW,2013-10-26 16:40:00,
2013-10-26 09:45:00,49.3,0.0,30.35,ESE,113,0.4,0.4,0,0.00,,,0.00,WUHU216HW,2013-10-26 16:45:00,
2013-10-26 09:50:00,49.3,0.0,30.35,ESE,113,0.0,0.4,0,0.00,,,0.00,WUHU216HW,2013-10-26 16:50:00,
2013-10-26 09:55:00,49.3,0.0,30.35,ESE,113,0.0,0.4,0,0.00,,,0.00,WUHU216HW,2013-10-26 16:55:00,
2013-10-26 10:00:00,49.3,0.0,30.34,NE,45,0.2,0.7,0,0.00,,,0.00,WUHU216HW,2013-10-26 17:00:00,
2013-10-26 10:05:00,49.3,0.0,30.34,North,0,1.1,1.6,0,0.00,,,0.00,WUHU216HW,2013-10-26 17:05:00,
2013-10-26 10:10:00,49.5,0.0,30.34,ESE,113,0.0,3.4,0,0.00,,,0.00,WUHU216HW,2013-10-26 17:10:00,
2013-10-26 10:15:00,49.7,0.0,30.34,NE,45,1.1,3.4,0,0.00,,,0.00,WUHU216HW,2013-10-26 17:15:00,
2013-10-26 10:20:00,49.7,0.0,30.35,SSE,158,0.7,2.7,0,0.00,,,0.00,WUHU216HW,2013-10-26 17:20:00,
2013-10-26 10:25:00,49.7,0.0,30.34,ESE,113,1.6,2.5,0,0.00,,,0.00,WUHU216HW,2013-10-26 17:25:00,
2013-10-26 10:30:00,49.9,0.0,30.35,ESE,113,0.4,1.8,0,0.00,,,0.00,WUHU216HW,2013-10-26 17:30:00,
2013-10-26 10:35:00,49.9,0.0,30.34,ESE,113,0.0,1.8,0,0.00,,,0.00,WUHU216HW,2013-10-26 17:35:00,
2013-10-26 10:40:00,50.0,0.0,30.35,East,90,1.6,3.1,0,0.00,,,0.00,WUHU216HW,2013-10-26 17:40:00,
2013-10-26 10:45:00,50.0,0.0,30.35,NNE,23,1.1,3.4,0,0.00,,,0.00,WUHU216HW,2013-10-26 17:45:00,
2013-10-26 10:50:00,50.2,0.0,30.35,East,90,1.8,3.4,0,0.00,,,0.00,WUHU216HW,2013-10-26 17:50:00,
2013-10-26 10:55:00,50.2,0.0,30.35,NNE,23,0.7,3.4,0,0.00,,,0.00,WUHU216HW,2013-10-26 17:55:00,
2013-10-26 11:00:00,50.2,0.0,30.35,North,0,0.4,2.2,0,0.00,,,0.00,WUHU216HW,2013-10-26 18:00:00,
2013-10-26 11:05:00,50.4,0.0,30.34,West,270,0.4,2.7,0,0.00,,,0.00,WUHU216HW,2013-10-26 18:05:00,
2013-10-26 11:10:00,50.6,0.0,30.34,ENE,68,2.5,2.9,0,0.00,,,0.00,WUHU216HW,2013-10-26 18:10:00,
2013-10-26 11:15:00,50.8,0.0,30.34,ESE,113,1.8,2.9,0,0.00,,,0.00,WUHU216HW,2013-10-26 18:15:00,
2013-10-26 11:20:00,51.1,0.0,30.34,NE,45,1.1,4.0,0,0.00,,,0.00,WUHU216HW,2013-10-26 18:20:00,
2013-10-26 11:25:00,51.1,0.0,30.34,NNE,23,0.4,4.0,0,0.00,,,0.00,WUHU216HW,2013-10-26 18:25:00,
2013-10-26 11:30:00,51.5,0.0,30.34,NE,45,0.7,3.4,0,0.00,,,0.00,WUHU216HW,2013-10-26 18:30:00,
2013-10-26 11:35:00,51.5,0.0,30.34,East,90,2.5,3.4,0,0.00,,,0.00,WUHU216HW,2013-10-26 18:35:00,
2013-10-26 11:40:00,51.7,0.0,30.34,ENE,68,3.1,3.4,0,0.00,,,0.00,WUHU216HW,2013-10-26 18:40:00,
2013-10-26 11:45:00,51.8,0.0,30.34,NNE,23,1.8,3.4,0,0.00,,,0.00,WUHU216HW,2013-10-26 18:45:00,
2013-10-26 11:50:00,51.8,0.0,30.34,NE,45,2.9,3.4,0,0.00,,,0.00,WUHU216HW,2013-10-26 18:50:00,
2013-10-26 11:55:00,51.8,0.0,30.34,NE,45,4.7,5.8,0,0.00,,,0.00,WUHU216HW,2013-10-26 18:55:00,
2013-10-26 12:00:00,51.8,0.0,30.34,ENE,68,4.3,6.7,0,0.00,,,0.00,WUHU216HW,2013-10-26 19:00:00,
2013-10-26 12:05:00,52.0,0.0,30.34,North,0,0.9,6.7,0,0.00,,,0.00,WUHU216HW,2013-10-26 19:05:00,
2013-10-26 12:10:00,52.0,0.0,30.34,NNE,23,2.0,4.3,0,0.00,,,0.00,WUHU216HW,2013-10-26 19:10:00,
2013-10-26 12:15:00,52.0,0.0,30.34,East,90,0.7,3.8,0,0.00,,,0.00,WUHU216HW,2013-10-26 19:15:00,
2013-10-26 12:20:00,52.2,0.0,30.34,NNE,23,3.4,3.4,0,0.00,,,0.00,WUHU216HW,2013-10-26 19:20:00,
2013-10-26 12:25:00,52.2,0.0,30.34,ENE,68,3.8,3.8,0,0.00,,,0.00,WUHU216HW,2013-10-26 19:25:00,
2013-10-26 12:30:00,52.2,0.0,30.33,NNE,23,1.6,4.3,0,0.00,,,0.00,WUHU216HW,2013-10-26 19:30:00,
2013-10-26 12:35:00,52.4,0.0,30.34,East,90,2.5,4.3,0,0.00,,,0.00,WUHU216HW,2013-10-26 19:35:00,
2013-10-26 12:40:00,52.4,0.0,30.33,ENE,68,1.1,4.0,0,0.00,,,0.00,WUHU216HW,2013-10-26 19:40:00,
2013-10-26 12:45:00,52.4,0.0,30.33,North,0,0.4,3.4,0,0.00,,,0.00,WUHU216HW,2013-10-26 19:45:00,
2013-10-26 12:50:00,52.6,0.0,30.33,NNE,23,1.1,3.1,0,0.00,,,0.00,WUHU216HW,2013-10-26 19:50:00,
2013-10-26 12:55:00,52.6,0.0,30.33,NNE,23,4.7,4.7,0,0.00,,,0.00,WUHU216HW,2013-10-26 19:55:00,
2013-10-26 13:00:00,52.7,0.0,30.32,NNE,23,2.9,4.7,0,0.00,,,0.00,WUHU216HW,2013-10-26 20:00:00,
2013-10-26 13:05:00,52.7,0.0,30.32,ENE,68,1.6,4.5,0,0.00,,,0.00,WUHU216HW,2013-10-26 20:05:00,
2013-10-26 13:10:00,52.7,0.0,30.32,NNE,23,1.1,4.7,0,0.00,,,0.00,WUHU216HW,2013-10-26 20:10:00,
2013-10-26 13:15:00,52.7,0.0,30.32,ENE,68,0.9,6.3,0,0.00,,,0.00,WUHU216HW,2013-10-26 20:15:00,
2013-10-26 13:20:00,52.9,0.0,30.32,ENE,68,3.4,6.3,0,0.00,,,0.00,WUHU216HW,2013-10-26 20:20:00,
2013-10-26 13:25:00,52.9,0.0,30.32,NNE,23,1.6,5.6,0,0.00,,,0.00,WUHU216HW,2013-10-26 20:25:00,
2013-10-26 13:30:00,52.9,0.0,30.32,East,90,1.1,5.1,0,0.00,,,0.00,WUHU216HW,2013-10-26 20:30:00,
2013-10-26 13:35:00,52.9,0.0,30.31,NE,45,4.0,5.4,0,0.00,,,0.00,WUHU216HW,2013-10-26 20:35:00,
2013-10-26 13:40:00,53.1,0.0,30.31,ESE,113,1.8,5.4,0,0.00,,,0.00,WUHU216HW,2013-10-26 20:40:00,
2013-10-26 13:45:00,53.3,0.0,30.31,North,0,3.4,4.5,0,0.00,,,0.00,WUHU216HW,2013-10-26 20:45:00,
2013-10-26 13:50:00,53.5,0.0,30.31,West,270,1.8,5.8,0,0.00,,,0.00,WUHU216HW,2013-10-26 20:50:00,
2013-10-26 13:55:00,53.5,0.0,30.31,NE,45,4.9,5.8,0,0.00,,,0.00,WUHU216HW,2013-10-26 20:55:00,
2013-10-26 14:00:00,53.3,0.0,30.31,North,0,1.1,4.9,0,0.00,,,0.00,WUHU216HW,2013-10-26 21:00:00,
2013-10-26 14:05:00,53.5,0.0,30.31,ESE,113,3.6,4.9,0,0.00,,,0.00,WUHU216HW,2013-10-26 21:05:00,
2013-10-26 14:10:00,53.3,0.0,30.30,NW,315,4.0,4.0,0,0.00,,,0.00,WUHU216HW,2013-10-26 21:10:00,
2013-10-26 14:15:00,53.5,0.0,30.30,SW,225,1.8,4.7,0,0.00,,,0.00,WUHU216HW,2013-10-26 21:15:00,
2013-10-26 14:20:00,53.5,0.0,30.30,East,90,2.0,4.7,0,0.00,,,0.00,WUHU216HW,2013-10-26 21:20:00,
2013-10-26 14:25:00,53.3,0.0,30.30,North,0,1.6,4.3,0,0.00,,,0.00,WUHU216HW,2013-10-26 21:25:00,
2013-10-26 14:30:00,53.3,0.0,30.30,NE,45,1.3,4.3,0,0.00,,,0.00,WUHU216HW,2013-10-26 21:30:00,
2013-10-26 14:35:00,53.1,0.0,30.30,NNW,338,4.0,7.4,0,0.00,,,0.00,WUHU216HW,2013-10-26 21:35:00,
2013-10-26 14:40:00,53.1,0.0,30.30,NE,45,1.3,7.4,0,0.00,,,0.00,WUHU216HW,2013-10-26 21:40:00,
2013-10-26 14:45:00,52.9,0.0,30.30,West,270,1.8,4.0,0,0.00,,,0.00,WUHU216HW,2013-10-26 21:45:00,
2013-10-26 14:50:00,52.9,0.0,30.29,NNW,338,2.7,3.8,0,0.00,,,0.00,WUHU216HW,2013-10-26 21:50:00,
2013-10-26 14:55:00,52.7,0.0,30.29,NW,315,3.8,4.0,0,0.00,,,0.00,WUHU216HW,2013-10-26 21:55:00,
2013-10-26 15:00:00,52.6,0.0,30.29,North,0,1.6,4.0,0,0.00,,,0.00,WUHU216HW,2013-10-26 22:00:00,
2013-10-26 15:05:00,52.6,0.0,30.29,NE,45,0.7,3.8,0,0.00,,,0.00,WUHU216HW,2013-10-26 22:05:00,
2013-10-26 15:10:00,52.6,0.0,30.29,NNW,338,2.5,2.5,0,0.00,,,0.00,WUHU216HW,2013-10-26 22:10:00,
2013-10-26 15:15:00,52.6,0.0,30.29,WSW,248,0.0,2.5,0,0.00,,,0.00,WUHU216HW,2013-10-26 22:15:00,
2013-10-26 15:20:00,52.6,0.0,30.29,West,270,0.4,2.5,0,0.00,,,0.00,WUHU216HW,2013-10-26 22:20:00,
2013-10-26 15:25:00,52.4,0.0,30.29,NNE,23,2.9,3.4,0,0.00,,,0.00,WUHU216HW,2013-10-26 22:25:00,
2013-10-26 15:30:00,52.2,0.0,30.29,SE,135,2.7,3.4,0,0.00,,,0.00,WUHU216HW,2013-10-26 22:30:00,
2013-10-26 15:35:00,52.2,0.0,30.29,ENE,68,1.1,4.0,0,0.00,,,0.00,WUHU216HW,2013-10-26 22:35:00,
2013-10-26 15:40:00,52.2,0.0,30.28,NNW,338,0.9,4.0,0,0.00,,,0.00,WUHU216HW,2013-10-26 22:40:00,
2013-10-26 15:45:00,52.2,0.0,30.29,North,0,1.1,2.5,0,0.00,,,0.00,WUHU216HW,2013-10-26 22:45:00,
2013-10-26 15:50:00,52.2,0.0,30.29,West,270,1.8,2.5,0,0.00,,,0.00,WUHU216HW,2013-10-26 22:50:00,
2013-10-26 15:55:00,52.2,0.0,30.29,NE,45,3.4,3.4,0,0.00,,,0.00,WUHU216HW,2013-10-26 22:55:00,
2013-10-26 16:00:00,52.2,0.0,30.29,NE,45,3.1,3.6,0,0.00,,,0.00,WUHU216HW,2013-10-26 23:00:00,
2013-10-26 16:05:00,52.2,0.0,30.29,North,0,3.8,3.8,0,0.00,,,0.00,WUHU216HW,2013-10-26 23:05:00,
2013-10-26 16:10:00,52.0,0.0,30.28,NNW,338,0.2,3.8,0,0.00,,,0.00,WUHU216HW,2013-10-26 23:10:00,
2013-10-26 16:15:00,52.0,0.0,30.28,ESE,113,1.6,3.8,0,0.00,,,0.00,WUHU216HW,2013-10-26 23:15:00,
2013-10-26 16:20:00,52.0,0.0,30.28,SSE,158,0.0,5.4,0,0.00,,,0.00,WUHU216HW,2013-10-26 23:20:00,
2013-10-26 16:25:00,52.0,0.0,30.28,ENE,68,2.2,5.4,0,0.00,,,0.00,WUHU216HW,2013-10-26 23:25:00,
2013-10-26 16:30:00,52.0,0.0,30.28,South,180,1.1,4.9,0,0.00,,,0.00,WUHU216HW,2013-10-26 23:30:00,
2013-10-26 16:35:00,52.0,0.0,30.27,NE,45,3.4,3.8,0,0.00,,,0.00,WUHU216HW,2013-10-26 23:35:00,
2013-10-26 16:40:00,52.0,0.0,30.28,NE,45,1.6,3.4,0,0.00,,,0.00,WUHU216HW,2013-10-26 23:40:00,
2013-10-26 16:45:00,51.8,0.0,30.28,NNW,338,2.7,5.4,0,0.00,,,0.00,WUHU216HW,2013-10-26 23:45:00,
2013-10-26 16:50:00,51.7,0.0,30.27,NNW,338,0.7,5.4,0,0.00,,,0.00,WUHU216HW,2013-10-26 23:50:00,
2013-10-26 16:55:00,51.7,0.0,30.28,North,0,2.7,4.7,0,0.00,,,0.00,WUHU216HW,2013-10-26 23:55:00,
2013-10-26 17:00:00,51.5,0.0,30.27,NNW,338,1.3,4.7,0,0.00,,,0.00,WUHU216HW,2013-10-27 00:00:00,
2013-10-26 17:05:00,51.5,0.0,30.27,North,0,1.8,3.8,0,0.00,,,0.00,WUHU216HW,2013-10-27 00:05:00,
2013-10-26 17:10:00,51.5,0.0,30.28,North,0,2.5,3.6,0,0.00,,,0.00,WUHU216HW,2013-10-27 00:10:00,
2013-10-26 17:15:00,51.5,0.0,30.28,North,0,0.2,3.8,0,0.00,,,0.00,WUHU216HW,2013-10-27 00:15:00,
2013-10-26 17:20:00,51.5,0.0,30.28,ENE,68,1.6,3.8,0,0.00,,,0.00,WUHU216HW,2013-10-27 00:20:00,
2013-10-26 17:25:00,51.5,0.0,30.28,ESE,113,1.8,2.9,0,0.00,,,0.00,WUHU216HW,2013-10-27 00:25:00,
2013-10-26 17:30:00,51.3,0.0,30.27,North,0,2.0,4.5,0,0.00,,,0.00,WUHU216HW,2013-10-27 00:30:00,
2013-10-26 17:35:00,51.3,0.0,30.27,ENE,68,1.1,4.5,0,0.00,,,0.00,WUHU216HW,2013-10-27 00:35:00,
2013-10-26 17:40:00,51.1,0.0,30.28,NNW,338,1.3,2.0,0,0.00,,,0.00,WUHU216HW,2013-10-27 00:40:00,
2013-10-26 17:45:00,51.1,0.0,30.28,West,270,1.1,2.2,0,0.00,,,0.00,WUHU216HW,2013-10-27 00:45:00,
2013-10-26 17:50:00,51.1,0.0,30.27,WSW,248,1.1,2.2,0,0.00,,,0.00,WUHU216HW,2013-10-27 00:50:00,
2013-10-26 17:55:00,51.1,0.0,30.27,NNE,23,0.9,1.3,0,0.00,,,0.00,WUHU216HW,2013-10-27 00:55:00,
2013-10-26 18:00:00,51.1,0.0,30.27,NNW,338,0.4,2.0,0,0.00,,,0.00,WUHU216HW,2013-10-27 01:00:00,
2013-10-26 18:05:00,50.9,0.0,30.27,North,0,0.4,2.5,0,0.00,,,0.00,WUHU216HW,2013-10-27 01:05:00,
2013-10-26 18:10:00,50.9,0.0,30.27,NW,315,1.8,3.4,0,0.00,,,0.00,WUHU216HW,2013-10-27 01:10:00,
2013-10-26 18:15:00,50.9,0.0,30.27,North,0,0.9,3.4,0,0.00,,,0.00,WUHU216HW,2013-10-27 01:15:00,
2013-10-26 18:20:00,50.9,0.0,30.27,ESE,113,0.4,2.5,0,0.00,,,0.00,WUHU216HW,2013-10-27 01:20:00,
2013-10-26 18:25:00,50.8,0.0,30.27,WSW,248,0.4,1.3,0,0.00,,,0.00,WUHU216HW,2013-10-27 01:25:00,
2013-10-26 18:30:00,50.8,0.0,30.27,North,0,0.2,1.8,0,0.00,,,0.00,WUHU216HW,2013-10-27 01:30:00,
2013-10-26 18:35:00,50.8,0.0,30.26,NNW,338,0.2,1.8,0,0.00,,,0.00,WUHU216HW,2013-10-27 01:35:00,
2013-10-26 18:40:00,50.8,0.0,30.26,WNW,293,0.7,1.1,0,0.00,,,0.00,WUHU216HW,2013-10-27 01:40:00,
2013-10-26 18:45:00,50.8,0.0,30.27,West,270,1.3,1.3,0,0.00,,,0.00,WUHU216HW,2013-10-27 01:45:00,
2013-10-26 18:50:00,50.8,0.0,30.26,North,0,0.7,2.0,0,0.00,,,0.00,WUHU216HW,2013-10-27 01:50:00,
2013-10-26 18:55:00,50.8,0.0,30.26,NNW,338,0.4,2.2,0,0.00,,,0.00,WUHU216HW,2013-10-27 01:55:00,
2013-10-26 19:00:00,50.8,0.0,30.25,NNW,338,0.0,2.2,0,0.00,,,0.00,WUHU216HW,2013-10-27 02:00:00,
2013-10-26 19:05:00,50.6,0.0,30.25,NNW,338,0.0,0.4,0,0.00,,,0.00,WUHU216HW,2013-10-27 02:05:00,
2013-10-26 19:10:00,50.6,0.0,30.25,NNW,338,0.4,0.4,0,0.00,,,0.00,WUHU216HW,2013-10-27 02:10:00,
2013-10-26 19:15:00,50.6,0.0,30.26,WSW,248,1.1,1.1,0,0.00,,,0.00,WUHU216HW,2013-10-27 02:15:00,
2013-10-26 19:20:00,50.6,0.0,30.26,WSW,248,0.4,1.1,0,0.00,,,0.00,WUHU216HW,2013-10-27 02:20:00,
2013-10-26 19:25:00,50.6,0.0,30.24,WSW,248,0.0,1.1,0,0.00,,,0.00,WUHU216HW,2013-10-27 02:25:00,
2013-10-26 19:30:00,50.6,0.0,30.24,WSW,248,0.0,0.4,0,0.00,,,0.00,WUHU216HW,2013-10-27 02:30:00,
2013-10-26 19:35:00,50.4,0.0,30.24,West,270,0.4,1.6,0,0.00,,,0.00,WUHU216HW,2013-10-27 02:35:00,
2013-10-26 19:40:00,50.4,0.0,30.24,West,270,0.4,1.6,0,0.00,,,0.00,WUHU216HW,2013-10-27 02:40:00,
2013-10-26 19:45:00,50.4,0.0,30.24,WSW,248,0.0,0.9,0,0.00,,,0.00,WUHU216HW,2013-10-27 02:45:00,
2013-10-26 19:50:00,50.4,0.0,30.25,WSW,248,0.4,0.9,0,0.00,,,0.00,WUHU216HW,2013-10-27 02:50:00,
2013-10-26 19:55:00,50.4,0.0,30.25,West,270,0.7,0.7,0,0.00,,,0.00,WUHU216HW,2013-10-27 02:55:00,
2013-10-26 20:00:00,50.4,0.0,30.24,SW,225,0.4,0.9,0,0.00,,,0.00,WUHU216HW,2013-10-27 03:00:00,
2013-10-26 20:05:00,50.4,0.0,30.24,SW,225,0.0,0.9,0,0.00,,,0.00,WUHU216HW,2013-10-27 03:05:00,
2013-10-26 20:10:00,50.2,0.0,30.25,WSW,248,0.9,1.1,0,0.00,,,0.00,WUHU216HW,2013-10-27 03:10:00,
2013-10-26 20:15:00,50.2,0.0,30.25,SW,225,0.2,1.1,0,0.00,,,0.00,WUHU216HW,2013-10-27 03:15:00,
2013-10-26 20:20:00,50.2,0.0,30.25,SW,225,0.0,0.9,0,0.00,,,0.00,WUHU216HW,2013-10-27 03:20:00,
2013-10-26 20:25:00,50.2,0.0,30.25,SW,225,1.1,1.6,0,0.00,,,0.00,WUHU216HW,2013-10-27 03:25:00,
2013-10-26 20:30:00,50.2,0.0,30.25,SW,225,0.7,1.6,0,0.00,,,0.00,WUHU216HW,2013-10-27 03:30:00,
2013-10-26 20:35:00,50.2,0.0,30.25,SW,225,1.3,1.3,0,0.00,,,0.00,WUHU216HW,2013-10-27 03:35:00,
2013-10-26 20:40:00,50.2,0.0,30.25,SW,225,0.2,1.3,0,0.00,,,0.00,WUHU216HW,2013-10-27 03:40:00,
2013-10-26 20:45:00,50.0,0.0,30.24,SE,135,0.9,1.3,0,0.00,,,0.00,WUHU216HW,2013-10-27 03:45:00,
2013-10-26 20:50:00,50.0,0.0,30.24,SE,135,0.0,1.1,0,0.00,,,0.00,WUHU216HW,2013-10-27 03:50:00,
2013-10-26 20:55:00,50.0,0.0,30.24,NNW,338,0.0,1.1,0,0.00,,,0.00,WUHU216HW,2013-10-27 03:55:00,
2013-10-26 21:00:00,50.0,0.0,30.24,North,0,0.2,0.7,0,0.00,,,0.00,WUHU216HW,2013-10-27 04:00:00,
2013-10-26 21:01:00,50.0,0.0,30.24,North,0,0.0,0.7,0,0.00,,,0.00,WUHU216HW,2013-10-27 04:01:00,
2013-10-26 21:06:00,50.0,0.0,30.24,ESE,113,0.9,1.1,0,0.00,,,0.00,WUHU216HW,2013-10-27 04:06:00,
2013-10-26 21:11:00,50.0,0.0,30.24,WSW,248,0.7,1.1,0,0.00,,,0.00,WUHU216HW,2013-10-27 04:11:00,
2013-10-26 21:16:00,50.0,0.0,30.25,SW,225,1.6,2.2,0,0.00,,,0.00,WUHU216HW,2013-10-27 04:16:00,
2013-10-26 21:21:00,50.0,0.0,30.25,SSW,203,0.0,2.2,0,0.00,,,0.00,WUHU216HW,2013-10-27 04:21:00,
2013-10-26 21:26:00,50.0,0.0,30.25,WSW,248,0.4,2.0,0,0.00,,,0.00,WUHU216HW,2013-10-27 04:26:00,
2013-10-26 21:31:00,50.0,0.0,30.24,WSW,248,0.4,2.0,0,0.00,,,0.00,WUHU216HW,2013-10-27 04:31:00,
2013-10-26 21:36:00,50.0,0.0,30.24,SW,225,0.9,0.9,0,0.00,,,0.00,WUHU216HW,2013-10-27 04:36:00,
2013-10-26 21:41:00,50.0,0.0,30.24,SW,225,1.1,1.3,0,0.00,,,0.00,WUHU216HW,2013-10-27 04:41:00,
2013-10-26 21:46:00,50.0,0.0,30.24,SW,225,0.0,1.3,0,0.00,,,0.00,WUHU216HW,2013-10-27 04:46:00,
2013-10-26 21:51:00,49.9,0.0,30.24,WSW,248,0.9,1.3,0,0.00,,,0.00,WUHU216HW,2013-10-27 04:51:00,
2013-10-26 21:56:00,49.9,0.0,30.24,SW,225,1.1,1.3,0,0.00,,,0.00,WUHU216HW,2013-10-27 04:56:00,
2013-10-26 22:01:00,49.9,0.0,30.24,WSW,248,0.4,1.1,0,0.00,,,0.00,WUHU216HW,2013-10-27 05:01:00,
2013-10-26 22:06:00,49.9,0.0,30.24,WSW,248,0.7,1.1,0,0.00,,,0.00,WUHU216HW,2013-10-27 05:06:00,
2013-10-26 22:11:00,49.7,0.0,30.23,WSW,248,0.0,0.7,0,0.00,,,0.00,WUHU216HW,2013-10-27 05:11:00,
2013-10-26 22:16:00,49.7,0.0,30.23,WSW,248,0.0,0.7,0,0.00,,,0.00,WUHU216HW,2013-10-27 05:16:00,
2013-10-26 22:21:00,49.7,0.0,30.23,WSW,248,0.2,0.9,0,0.00,,,0.00,WUHU216HW,2013-10-27 05:21:00,
2013-10-26 22:26:00,49.7,0.0,30.23,WSW,248,0.0,0.9,0,0.00,,,0.00,WUHU216HW,2013-10-27 05:26:00,
2013-10-26 22:31:00,49.7,0.0,30.23,WSW,248,0.0,0.2,0,0.00,,,0.00,WUHU216HW,2013-10-27 05:31:00,
2013-10-26 22:36:00,49.7,0.0,30.22,WSW,248,0.0,0.0,0,0.00,,,0.00,WUHU216HW,2013-10-27 05:36:00,
2013-10-26 22:41:00,49.7,0.0,30.23,NW,315,1.1,1.6,0,0.00,,,0.00,WUHU216HW,2013-10-27 05:41:00,
2013-10-26 22:46:00,49.5,0.0,30.22,ENE,68,0.9,1.6,0,0.00,,,0.00,WUHU216HW,2013-10-27 05:46:00,
2013-10-26 22:51:00,49.7,0.0,30.22,NNE,23,0.0,1.3,0,0.00,,,0.00,WUHU216HW,2013-10-27 05:51:00,
2013-10-26 22:56:00,49.7,0.0,30.22,NNE,23,0.0,1.1,0,0.00,,,0.00,WUHU216HW,2013-10-27 05:56:00,
2013-10-26 23:01:00,49.7,0.0,30.23,WSW,248,0.4,1.1,0,0.00,,,0.00,WUHU216HW,2013-10-27 06:01:00,
2013-10-26 23:06:00,49.7,0.0,30.22,WSW,248,0.0,1.1,0,0.00,,,0.00,WUHU216HW,2013-10-27 06:06:00,
2013-10-26 23:11:00,49.7,0.0,30.22,WSW,248,0.0,0.4,0,0.00,,,0.00,WUHU216HW,2013-10-27 06:11:00,
2013-10-26 23:16:00,49.7,0.0,30.21,SW,225,1.3,1.8,0,0.00,,,0.00,WUHU216HW,2013-10-27 06:16:00,
2013-10-26 23:21:00,49.7,0.0,30.21,SW,225,0.4,1.8,0,0.00,,,0.00,WUHU216HW,2013-10-27 06:21:00,
2013-10-26 23:26:00,49.7,0.0,30.21,WSW,248,0.4,2.0,0,0.00,,,0.00,WUHU216HW,2013-10-27 06:26:00,
2013-10-26 23:31:00,49.5,0.0,30.21,NW,315,0.7,2.0,0,0.00,,,0.00,WUHU216HW,2013-10-27 06:31:00,
2013-10-26 23:36:00,49.5,0.0,30.21,WSW,248,0.0,2.0,0,0.00,,,0.00,WUHU216HW,2013-10-27 06:36:00,
2013-10-26 23:41:00,49.5,0.0,30.21,SW,225,0.4,2.0,0,0.00,,,0.00,WUHU216HW,2013-10-27 06:41:00,
2013-10-26 23:46:00,49.5,0.0,30.21,WSW,248,0.4,1.1,0,0.00,,,0.00,WUHU216HW,2013-10-27 06:46:00,
2013-10-26 23:51:00,49.5,0.0,30.21,WSW,248,0.0,1.1,0,0.00,,,0.00,WUHU216HW,2013-10-27 06:51:00,
2013-10-26 23:56:00,49.5,0.0,30.21,WSW,248,0.0,0.4,0,0.00,,,0.00,WUHU216HW,2013-10-27 06:56:00,